Lehigh Valley, PA

12:44 PM EST on February 13, 2016 (GMT -0500)
Lehigh Valley International

Weather History for KABE - August, 2014

Change the Weather History Date:

Sunday, August 10, 2014

  Actual Average Record
Temperature  
Mean Temperature 72 °F 72 °F  
Max Temperature 87 °F 83 °F 99 °F (1949)
Min Temperature 57 °F 62 °F 51 °F (1999)
Degree Days  
Heating Degree Days 0 0  
Month to date heating degree days 0 0  
Since 1 June heating degree days 4 36  
Since 1 July heating degree days 0 3  
Cooling Degree Days 7 8  
Month to date cooling degree days 71 80  
Year to date cooling degree days 571 545  
Since 1 June cooling degree days 532 500  
Growing Degree Days 22 (Base 50)    
Moisture  
Dew Point 55 °F    
Average Humidity 60    
Maximum Humidity 90    
Minimum Humidity 29    
Precipitation  
Precipitation 0.00 in 0.12 in 1.33 in (1960)
Month to date precipitation 0.07 1.35  
Year to date precipitation 32.09 27.43  
Snow  
Snow 0.00 in 0.00 in 0.00 in (2002)
Month to date snowfall 0.0 0.0  
Since 1 June snowfall 0.0 0.0  
Since 1 July snowfall 0.0 0.0  
Snow Depth 0.00 in    
Sea Level Pressure  
Sea Level Pressure 30.12 in    
Wind  
Wind Speed 3 mph (NW)    
Max Wind Speed 8 mph    
Max Gust Speed 12 mph    
Visibility 10 miles    
Events      
T = Trace of Precipitation, MM = Missing Value Source: NWS Daily Summary

Daily Weather History Graph

Daily Weather History Graph

Search for Another Location

Airport or City:

Trip Planner

Search our weather history database for the weather conditions in past years. The results will help you decide how hot, cold, wet, or windy it might be!

Date:

Astronomy

Aug. 10, 2014 Rise Set
Actual Time 6:07 AM EDT 8:06 PM EDT
Civil Twilight 5:37 AM EDT 8:35 PM EDT
Nautical Twilight 5:00 AM EDT 9:12 PM EDT
Astronomical Twilight 4:21 AM EDT 9:51 PM EDT
Moon 7:50 PM EDT (8/10) 5:56 AM EDT (8/10)
Length of Visible Light 14h 58m
Length of Day
13h 59m
Full, 100% of the Moon is Illuminated
Aug 10
Full
Aug 10
Full
Aug 17
Last Quarter
Aug 25
New
Sep 2
First Quarter

Hourly Weather History & Observations

Time (EDT) Temp. Heat Index Dew Point Humidity Pressure Visibility Wind Dir Wind Speed Gust Speed Precip Events Conditions
12:51 AM 66.0 °F - 57.0 °F 73% 30.13 in 10.0 mi North 3.5 mph - N/A   Clear
1:51 AM 64.0 °F - 57.0 °F 78% 30.12 in 10.0 mi East 3.5 mph - N/A   Clear
2:51 AM 61.0 °F - 57.0 °F 87% 30.12 in 10.0 mi Calm Calm - N/A   Clear
3:51 AM 60.1 °F - 57.0 °F 90% 30.12 in 10.0 mi NNW 3.5 mph - N/A   Clear
4:51 AM 59.0 °F - 55.0 °F 87% 30.13 in 10.0 mi Calm Calm - N/A   Clear
5:51 AM 59.0 °F - 55.9 °F 90% 30.14 in 10.0 mi NNW 3.5 mph - N/A   Clear
6:51 AM 60.1 °F - 55.9 °F 86% 30.14 in 10.0 mi Calm Calm - N/A   Clear
7:51 AM 63.0 °F - 57.0 °F 81% 30.16 in 10.0 mi Calm Calm - N/A   Clear
8:51 AM 69.1 °F - 57.9 °F 68% 30.16 in 10.0 mi Calm Calm - N/A   Clear
9:51 AM 75.2 °F - 57.2 °F 53% 30.16 in 10.0 mi ENE 3.5 mph - N/A   Clear
10:51 AM 79.0 °F - 57.0 °F 47% 30.15 in 10.0 mi Variable 3.5 mph - N/A   Clear
11:51 AM 84.0 °F 82.5 °F 53.1 °F 34% 30.15 in 10.0 mi Variable 3.5 mph - N/A   Clear
12:51 PM 81.0 °F - 52.0 °F 36% 30.14 in 10.0 mi Variable 3.5 mph - N/A   Clear
1:51 PM 82.9 °F - 52.0 °F 34% 30.13 in 10.0 mi NW 3.5 mph - N/A   Mostly Cloudy
2:51 PM 84.9 °F - 52.0 °F 32% 30.12 in 10.0 mi NNW 4.6 mph - N/A   Mostly Cloudy
3:51 PM 87.1 °F - 52.0 °F 30% 30.10 in 10.0 mi South 4.6 mph - N/A   Clear
4:51 PM 86.0 °F - 51.8 °F 31% 30.10 in 10.0 mi SW 5.8 mph - N/A   Partly Cloudy
5:51 PM 82.9 °F - 52.0 °F 34% 30.09 in 10.0 mi WSW 4.6 mph - N/A   Overcast
6:51 PM 84.9 °F - 51.1 °F 31% 30.08 in 10.0 mi SSE 5.8 mph - N/A   Scattered Clouds
7:51 PM 80.6 °F 80.3 °F 53.6 °F 39% 30.09 in 10.0 mi SSE 3.5 mph - N/A   Clear
8:51 PM 73.9 °F - 54.0 °F 50% 30.09 in 10.0 mi Calm Calm - N/A   Clear
9:51 PM 70.0 °F - 57.9 °F 65% 30.10 in 10.0 mi Calm Calm - N/A   Clear
10:51 PM 70.0 °F - 57.9 °F 65% 30.11 in 10.0 mi Calm Calm - N/A   Clear